| time (UTC) | temp F | wind direction | speed MPH | gust MPH | rain 1hr in | rain 24hr in | rain mn in | humidity % | barometer mb |
| 20260503204015 | 73 | 90 | 4.0 | 11.0 | 0.00 | 0.00 | 0.00 | 41 | 1012.7 |
| 20260503203015 | 73 | 68 | 5.0 | 13.0 | 0.00 | 0.00 | 0.00 | 42 | 1012.7 |
| 20260503202016 | 73 | 68 | 4.0 | 13.0 | 0.00 | 0.00 | 0.00 | 43 | 1012.9 |
| 20260503201015 | 73 | 68 | 4.0 | 11.0 | 0.00 | 0.00 | 0.00 | 44 | 1013.0 |
| 20260503200015 | 72 | 68 | 4.0 | 14.0 | 0.00 | 0.00 | 0.00 | 45 | 1013.2 |
| 20260503195038 | 72 | 90 | 4.0 | 14.0 | 0.00 | 0.00 | 0.00 | 44 | 1013.2 |
| 20260503194016 | 72 | 68 | 4.0 | 10.0 | 0.00 | 0.00 | 0.00 | 46 | 1013.2 |
| 20260503193015 | 72 | 68 | 5.0 | 11.0 | 0.00 | 0.00 | 0.00 | 44 | 1013.2 |
| 20260503192017 | 71 | 90 | 4.0 | 13.0 | 0.00 | 0.00 | 0.00 | 47 | 1013.2 |
| 20260503191036 | 71 | 68 | 5.0 | 10.0 | 0.00 | 0.00 | 0.00 | 45 | 1013.4 |
| 20260503190016 | 70 | 68 | 5.0 | 10.0 | 0.00 | 0.00 | 0.00 | 46 | 1013.5 |
| 20260503185017 | 70 | 68 | 5.0 | 11.0 | 0.00 | 0.00 | 0.00 | 45 | 1013.6 |
| 20260503184015 | 70 | 90 | 4.0 | 10.0 | 0.00 | 0.00 | 0.00 | 45 | 1013.8 |
| 20260503183015 | 70 | 68 | 4.0 | 11.0 | 0.00 | 0.00 | 0.00 | 45 | 1013.9 |
| 20260503182017 | 70 | 68 | 3.0 | 9.0 | 0.00 | 0.00 | 0.00 | 48 | 1013.9 |
| 20260503181017 | 70 | 90 | 4.0 | 9.0 | 0.00 | 0.00 | 0.00 | 47 | 1014.0 |
| 20260503180015 | 69 | 68 | 4.0 | 13.0 | 0.00 | 0.00 | 0.00 | 48 | 1014.0 |
| 20260503175015 | 69 | 68 | 4.0 | 9.0 | 0.00 | 0.00 | 0.00 | 48 | 1014.1 |
| 20260503174035 | 69 | 68 | 4.0 | 10.0 | 0.00 | 0.00 | 0.00 | 49 | 1014.1 |
| 20260503173015 | 69 | 68 | 5.0 | 11.0 | 0.00 | 0.00 | 0.00 | 48 | 1014.1 |
| 20260503172017 | 69 | 68 | 5.0 | 13.0 | 0.00 | 0.00 | 0.00 | 47 | 1014.2 |
| 20260503171016 | 69 | 0 | 3.0 | 8.0 | 0.00 | 0.00 | 0.00 | 47 | 1014.2 |
| 20260503131015 | 51 | 0.0 | 1.0 | 0.00 | 0.01 | 0.00 | 83 | 1014.2 | |
| 20260503081017 | 58 | 0.0 | 0.0 | 0.00 | 0.01 | 0.00 | 71 | 1014.1 | |
| 20260503072017 | 58 | 0.0 | 0.0 | 0.00 | 0.01 | 0.00 | 71 | 1013.9 | |
| 20260503071017 | 58 | 0.0 | 0.0 | 0.00 | 0.01 | 0.00 | 70 | 1013.9 | |
| 20260503055039 | 62 | 0.0 | 3.0 | 0.00 | 0.01 | 0.00 | 63 | 1013.9 | |
| 20260503054017 | 62 | 0.0 | 0.0 | 0.00 | 0.01 | 0.00 | 63 | 1014.0 | |
| 20260503053017 | 62 | 0.0 | 3.0 | 0.00 | 0.01 | 0.00 | 62 | 1014.0 | |
| 20260503052017 | 62 | 0.0 | 1.0 | 0.00 | 0.01 | 0.00 | 60 | 1014.0 | |
| 20260503051017 | 63 | 0.0 | 1.0 | 0.00 | 0.01 | 0.00 | 60 | 1014.0 | |
| 20260503050017 | 63 | 0.0 | 1.0 | 0.00 | 0.01 | 0.00 | 58 | 1014.0 | |
| 20260503045017 | 64 | 0.0 | 1.0 | 0.00 | 0.01 | 0.00 | 56 | 1013.9 | |
| 20260503044019 | 64 | 0.0 | 5.0 | 0.00 | 0.01 | 0.00 | 55 | 1013.8 | |
| 20260503043017 | 63 | 0.0 | 0.0 | 0.00 | 0.01 | 0.00 | 56 | 1013.8 | |
| 20260503042017 | 63 | 0.0 | 0.0 | 0.00 | 0.01 | 0.00 | 56 | 1013.8 | |
| 20260503041017 | 64 | 0.0 | 0.0 | 0.00 | 0.01 | 0.00 | 56 | 1013.8 | |
| 20260503040017 | 64 | 0.0 | 0.0 | 0.00 | 0.01 | 0.00 | 56 | 1013.6 | |
| 20260503035041 | 65 | 0.0 | 0.0 | 0.00 | 0.01 | 0.00 | 56 | 1013.5 | |
| 20260503034019 | 65 | 0.0 | 0.0 | 0.00 | 0.01 | 0.00 | 55 | 1013.4 | |
| 20260503033018 | 66 | 0.0 | 3.0 | 0.00 | 0.01 | 0.00 | 54 | 1013.3 | |
| 20260503032017 | 67 | 0.0 | 1.0 | 0.00 | 0.01 | 0.00 | 53 | 1013.1 | |
| 20260503031018 | 68 | 0.0 | 0.0 | 0.00 | 0.01 | 0.00 | 52 | 1013.1 | |
| 20260503030017 | 69 | 0.0 | 0.0 | 0.00 | 0.01 | 0.00 | 50 | 1013.1 | |
| 20260503025017 | 70 | 0.0 | 0.0 | 0.00 | 0.01 | 0.00 | 48 | 1013.1 | |
| 20260503024019 | 71 | 0.0 | 1.0 | 0.00 | 0.01 | 0.00 | 47 | 1013.1 | |
| 20260503023017 | 72 | 0.0 | 0.0 | 0.00 | 0.01 | 0.00 | 46 | 1013.1 | |
| 20260503022018 | 72 | 0.0 | 1.0 | 0.00 | 0.01 | 0.00 | 46 | 1013.1 | |
| 20260503021019 | 73 | 0.0 | 3.0 | 0.00 | 0.01 | 0.00 | 45 | 1013.1 | |
| 20260503020017 | 74 | 0.0 | 4.0 | 0.00 | 0.01 | 0.00 | 44 | 1013.1 | |
| 20260503015019 | 75 | 0.0 | 3.0 | 0.00 | 0.01 | 0.00 | 44 | 1013.2 | |
| 20260503014017 | 75 | 0.0 | 1.0 | 0.00 | 0.01 | 0.00 | 43 | 1013.2 | |
| 20260503013019 | 76 | 0.0 | 1.0 | 0.00 | 0.01 | 0.00 | 42 | 1013.3 | |
| 20260503012017 | 76 | 0.0 | 2.0 | 0.00 | 0.01 | 0.00 | 40 | 1013.4 | |
| 20260503011017 | 76 | 45 | 1.0 | 6.0 | 0.00 | 0.01 | 0.00 | 39 | 1013.4 |
| 20260503010017 | 77 | 68 | 2.0 | 7.0 | 0.00 | 0.01 | 0.00 | 37 | 1013.6 |
| 20260503005039 | 78 | 0.0 | 2.0 | 0.00 | 0.01 | 0.00 | 37 | 1013.6 | |
| 20260503004037 | 78 | 0.0 | 2.0 | 0.00 | 0.01 | 0.00 | 36 | 1013.7 | |
| 20260503003017 | 77 | 90 | 1.0 | 3.0 | 0.00 | 0.01 | 0.00 | 37 | 1013.7 |
| 20260503002017 | 77 | 68 | 1.0 | 5.0 | 0.00 | 0.01 | 0.00 | 38 | 1013.8 |
| 20260503001017 | 76 | 68 | 2.0 | 7.0 | 0.00 | 0.01 | 0.00 | 38 | 1013.8 |
| 20260503000018 | 77 | 68 | 2.0 | 6.0 | 0.00 | 0.01 | 0.01 | 36 | 1014.0 |
| 20260502235017 | 79 | 0.0 | 3.0 | 0.00 | 0.01 | 0.01 | 36 | 1014.1 | |
| 20260502234037 | 79 | 0.0 | 3.0 | 0.00 | 0.01 | 0.01 | 41 | 1014.2 | |
| 20260502233015 | 78 | 158 | 1.0 | 4.0 | 0.00 | 0.01 | 0.01 | 41 | 1014.3 |
| 20260502232016 | 78 | 135 | 1.0 | 3.0 | 0.00 | 0.01 | 0.01 | 42 | 1014.4 |
| 20260502231015 | 76 | 90 | 1.0 | 5.0 | 0.00 | 0.01 | 0.01 | 40 | 1014.5 |
| 20260502230037 | 75 | 90 | 2.0 | 7.0 | 0.00 | 0.01 | 0.01 | 40 | 1014.7 |
| 20260502225017 | 75 | 68 | 2.0 | 7.0 | 0.00 | 0.01 | 0.01 | 41 | 1014.8 |
| 20260502224015 | 75 | 68 | 2.0 | 6.0 | 0.00 | 0.01 | 0.01 | 41 | 1014.9 |
| 20260502223015 | 74 | 68 | 3.0 | 8.0 | 0.00 | 0.01 | 0.01 | 43 | 1014.9 |
| 20260502222015 | 74 | 68 | 2.0 | 8.0 | 0.00 | 0.01 | 0.01 | 43 | 1015.1 |
| 20260502221015 | 73 | 90 | 3.0 | 8.0 | 0.00 | 0.01 | 0.01 | 43 | 1015.2 |
| 20260502220017 | 73 | 68 | 3.0 | 9.0 | 0.00 | 0.01 | 0.01 | 43 | 1015.4 |
| 20260502215015 | 73 | 45 | 3.0 | 8.0 | 0.00 | 0.01 | 0.01 | 44 | 1015.5 |
| 20260502214016 | 73 | 45 | 3.0 | 9.0 | 0.00 | 0.01 | 0.01 | 46 | 1015.7 |
| 20260502213016 | 72 | 68 | 4.0 | 10.0 | 0.00 | 0.01 | 0.01 | 46 | 1015.8 |
| 20260502212016 | 71 | 68 | 5.0 | 10.0 | 0.00 | 0.01 | 0.01 | 46 | 1015.8 |
| 20260502211015 | 72 | 68 | 3.0 | 11.0 | 0.00 | 0.01 | 0.01 | 46 | 1016.0 |
| 20260502210015 | 71 | 0 | 4.0 | 10.0 | 0.00 | 0.01 | 0.01 | 49 | 1016.0 |